Regional Weather Roundup
Issued by NWS

Home | Current Version | Previous Version | Graphics & Text | Print | Product List | Glossary On
Versions: 1 2 3 4 5 6 7 8 9 10 11 12 13 14 15 16 17 18 19 20 21 22 23 24 25 26 27 28 29 30 31 32 33 34 35 36 37 38 39 40 41 42 43 44 45 46 47 48 49 50
000
ASUS43 KIND 060009
RWRIN

WEATHER ROUNDUP FOR INDIANA
NATIONAL WEATHER SERVICE INDIANAPOLIS IN
800 PM EDT TUE MAY 05 2015

NOTE: "FAIR" INDICATES FEW OR NO CLOUDS BELOW 12,000 FEET WITH NO
SIGNIFICANT WEATHER AND/OR OBSTRUCTIONS TO VISIBILITY.

* - STATION DOES NOT REPORT WEATHER SUCH AS PRECIPITATION OR FOG.

+ - STATION NOT QUALITY CONTROLLED BY THE NATIONAL WEATHER SERVICE.
    USE DATA WITH CAUTION...ESPECIALLY DEWPOINT AND RELATIVE
    HUMIDITY OBSERVATIONS.

INZ001>003-010>013-019-020-060100-
NORTHWEST INDIANA

CITY           SKY/WX    TMP DP  RH WIND       PRES   REMARKS
GARY /AIRPORT/ CLOUDY    50 N/A N/A VRB3      30.19F FOG
KNOX *+        MOCLDY    63  55  77 E12       30.15S
LA PORTE +     MOCLDY    63  61  94 NE7       30.18S FOG
6HR MIN TEMP:  63; 6HR MAX TEMP:  70;

MICHIGAN CITY+ MOCLDY    59  59 100 E3        30.19R
MONTICELLO +   CLOUDY    73  64  73 NE8       30.13R
6HR MIN TEMP:  73; 6HR MAX TEMP:  81;

VALPARAISO     MOCLDY    65  61  87 NE7       30.17S
6HR MIN TEMP:  65; 6HR MAX TEMP:  71; 6HR PCP: TRACE;


$$

LMZ046-743>745-060100-
SOUTHERN LAKE MICHIGAN

STATION/POSITION TIME  TEMP    WIND        PRES    WAVE
                       AIR SEA DIR/SP/G            HT
                 (UTC) (F)     (DEG/KT/KT) (MB)    (FT)
BURNS HARBOR     0000   53      60/  6/  8 1022.4R
MICHIGAN CITY    0000   56      40/ 11/ 12   N/A
5NW MICH CITY    0000   52 50   70/  8/ 10   N/A     2

$$

INZ004-005-014>016-021>024-060100-
NORTH CENTRAL INDIANA

CITY           SKY/WX    TMP DP  RH WIND       PRES   REMARKS
ELKHART        CLOUDY    55  52  88 E7        30.20F FOG
GOSHEN         CLOUDY    56  54  93 NE8       30.19S FOG
6HR MIN TEMP:  56; 6HR MAX TEMP:  72; 6HR PCP:  0.10;

LOGANSPORT +   MOCLDY    72  59  64 NE5       30.14S
ROCHESTER +    MOCLDY    70  68  94 NE6       30.16R FOG
SOUTH BEND     CLOUDY    58  54  86 E8        30.20F
6HR MIN TEMP:  58; 6HR MAX TEMP:  67; 6HR PCP:  0.13;

WARSAW +       CLOUDY    63  61  94 NE9G17    30.18R FOG

$$

INZ006>009-017-018-025>027-060100-
NORTHEAST INDIANA

CITY           SKY/WX    TMP DP  RH WIND       PRES   REMARKS
ANGOLA *+      CLOUDY    55  45  67 NE8       30.20F
AUBURN +       CLOUDY    57  54  88 NE10      30.22R FOG
FORT WAYNE     MOCLDY    61  58  90 NE14      30.18R
6HR MIN TEMP:  61; 6HR MAX TEMP:  80;

HUNTINGTON +   MOCLDY    65  61  86 E8        30.16S
6HR MIN TEMP:  65; 6HR MAX TEMP:  80;


$$

INZ028-029-035-036-043>045-051>053-060100-
WEST CENTRAL INDIANA

CITY           SKY/WX    TMP DP  RH WIND       PRES   REMARKS
CRAWFORDSVL +  PTCLDY    76  44  32 S7        30.14R
6HR MIN TEMP:  76; 6HR MAX TEMP:  82;

GREENCASTLE +  CLEAR     75  48  38 CALM      30.16R
LAFAYETTE      CLOUDY    77  52  41 S3        30.12R
6HR MIN TEMP:  77; 6HR MAX TEMP:  83;

TERRE HAUTE    MOCLDY    78  56  46 S3        30.13S
6HR MIN TEMP:  78; 6HR MAX TEMP:  85;


$$

INZ030>032-037>040-046>048-054>057-064-065-060100-
CENTRAL INDIANA

CITY           SKY/WX    TMP DP  RH WIND       PRES   REMARKS
CP ATTERBURY + CLEAR     77  50  38 SW5       30.16S
FRANKFORT +    PTCLDY    75  55  49 S3        30.16R
6HR MIN TEMP:  75; 6HR MAX TEMP:  83;

GREENWOOD *+   MOCLDY    79  48  34 SW5       30.17R
INDIANAPOLIS   PTCLDY    76  53  44 S8        30.15R
6HR MIN TEMP:  76; 6HR MAX TEMP:  83;

-EAGLE CREEK   CLEAR     77  51  40 SW5       30.15R
6HR MIN TEMP:  77; 6HR MAX TEMP:  83;

KOKOMO *+      PTCLDY    77  54  44 SW8       30.14R
6HR MIN TEMP:  77; 6HR MAX TEMP:  82;

MARION +       PTCLDY    77  52  41 SW6       30.15S
MT COMFORT *+  CLEAR     79  36  21 S5        30.16S
SHELBYVILLE    PTCLDY    79  55  43 SW7       30.16S
6HR MIN TEMP:  79; 6HR MAX TEMP:  85;

ZIONSVILLE +   CLEAR     75  51  43 SW7       30.16R
6HR MIN TEMP:  75; 6HR MAX TEMP:  83;


$$

INZ033-034-041-042-049-050-058-059-060100-
EAST CENTRAL INDIANA

CITY           SKY/WX    TMP DP  RH WIND       PRES   REMARKS
MUNCIE         CLEAR     79  53  40 SW8       30.15F
6HR MIN TEMP:  77; 6HR MAX TEMP:  82;


$$

INZ060-061-067>069-081>083-085>088-060100-
SOUTHWEST INDIANA

CITY           SKY/WX    TMP DP  RH WIND       PRES   REMARKS
EVANSVILLE     CLEAR     81  51  35 S6        30.14F
6HR MIN TEMP:  81; 6HR MAX TEMP:  85;

HUNTINGBURG *+ CLEAR     79  54  41 S5        30.16S
6HR MIN TEMP:  79; 6HR MAX TEMP:  82;

WASHINGTON +   CLEAR     78  49  35 S8        30.14S
6HR MIN TEMP:  78; 6HR MAX TEMP:  83;


$$

INZ062-063-066-070>080-084-089>092-060100-
SOUTH CENTRAL AND SOUTHEAST INDIANA

CITY           SKY/WX    TMP DP  RH WIND       PRES   REMARKS
BLOOMINGTON    PTCLDY    80  49  33 SW5       30.16R
6HR MIN TEMP:  80; 6HR MAX TEMP:  84;

MADISON *+     CLEAR     77  52  41 CALM      30.20R
SEYMOUR +      CLEAR     79  55  44 SW6       30.16R

$$



USA.gov is the U.S. government's official web portal to all federal, state and local government web resources and services.